Wind_Speed
18 18 17 16 16 18 19 20 20 24 29 32 34 37 39 39 41 41 40 42 43 42 43 43 43 44 44 44 43 42 41 41 40 39 38 36 36 37 37 36 35 35 34 34 34 34 33 31 30 28 27 27 27 26 25 24 24 24 22 19 19 20 21
18 18 18 17 17 18 19 20 22 25 29 32 35 37 38 39 41 41 41 43 44 44 43 43 43 44 44 44 43 42 41 41 40 39 38 36 34 35 36 36 36 36 35 35 35 34 32 31 30 29 28 28 28 28 27 25 25 25 24 22 21 21 22
18 17 18 18 17 18 19 19 21 26 30 32 34 36 38 40 42 44 43 43 44 44 43 44 43 44 44 43 42 42 41 40 40 39 38 37 36 35 35 36 36 36 35 35 34 33 33 31 31 30 29 29 29 29 28 27 26 25 25 24 24 23 23
20 20 19 20 20 19 19 19 21 26 31 33 36 37 40 42 44 45 44 44 44 43 43 44 44 43 43 42 41 40 41 40 40 40 40 39 39 37 35 35 36 35 35 35 34 33 32 32 31 31 30 30 29 30 30 29 27 26 26 26 27 26 25
22 21 19 19 18 17 17 18 20 26 31 34 37 39 40 42 42 41 42 43 44 44 45 45 43 41 40 40 40 39 40 41 40 40 40 39 38 37 36 36 36 36 36 35 35 33 32 32 32 32 31 31 30 30 30 30 29 28 27 28 29 28 27
20 19 17 17 17 16 18 19 22 28 32 34 38 38 38 38 38 38 40 40 42 43 43 43 42 41 39 40 39 38 38 39 40 39 39 38 37 37 37 38 37 37 37 36 35 34 33 32 32 32 32 32 32 31 31 31 31 30 30 30 30 30 29
19 18 17 17 17 17 18 18 22 29 33 34 36 36 35 36 37 38 38 39 40 41 40 40 41 41 40 40 40 39 39 39 40 39 38 36 36 36 37 37 38 38 37 36 36 35 34 33 33 33 33 33 33 33 32 32 33 32 32 33 33 32 31
20 19 19 19 18 17 18 17 19 25 29 30 31 32 34 35 36 36 37 38 39 39 39 40 41 41 41 40 40 40 40 40 39 39 37 36 35 36 36 36 37 37 36 36 36 36 35 35 34 34 34 34 35 35 34 34 34 34 34 35 35 34 33
20 21 20 20 19 18 17 16 19 23 26 28 29 30 32 34 34 35 37 38 37 38 40 41 42 42 42 41 40 41 40 39 39 38 38 37 36 37 36 36 36 35 35 36 36 36 37 37 37 36 35 35 36 36 36 36 36 36 37 37 36 36 35
20 20 20 20 19 17 16 16 17 18 20 23 26 29 32 33 34 34 35 36 36 38 40 41 41 41 41 40 40 40 40 40 39 38 38 38 38 38 37 37 36 35 35 36 35 36 37 38 37 37 37 37 37 38 38 38 38 38 38 38 38 37 37
19 19 18 19 18 16 16 15 15 15 15 19 24 28 31 33 33 33 34 35 36 37 38 39 39 39 40 40 40 40 40 40 40 39 39 39 38 38 38 38 37 36 37 36 36 36 37 37 37 38 39 40 40 40 40 40 40 39 39 40 39 39 39
18 17 18 19 18 16 16 15 15 15 15 19 24 27 30 32 32 33 33 34 35 36 37 38 38 38 39 39 39 39 40 41 40 40 40 40 39 38 38 38 38 38 38 38 38 37 36 37 38 39 40 42 42 41 41 41 40 40 40 40 40 40 40
17 15 16 18 17 16 16 15 16 17 17 20 25 28 29 31 32 32 32 33 36 36 37 38 38 38 38 38 38 38 39 40 41 41 40 40 40 39 39 39 39 38 39 39 39 38 37 38 39 40 41 42 42 42 42 41 41 41 41 41 40 40 40
19 17 16 16 17 17 17 16 17 17 16 18 24 27 28 30 32 33 33 34 36 36 37 38 38 38 38 37 37 38 39 40 40 41 40 40 40 40 39 39 39 39 39 39 39 39 40 40 40 41 41 42 42 42 42 41 41 41 41 41 41 40 40
20 19 18 18 18 18 18 17 17 16 16 17 22 25 26 28 30 31 32 33 35 36 37 37 37 37 37 36 38 39 40 39 38 38 39 38 38 39 40 39 39 39 39 39 39 40 41 41 40 40 41 42 42 42 41 41 41 42 42 42 42 41 41
20 19 18 18 19 19 18 18 17 17 16 16 19 23 24 26 29 31 32 33 34 35 36 37 36 36 36 37 39 40 39 38 37 36 37 37 38 39 39 39 39 39 39 39 40 40 41 40 40 40 41 41 41 41 41 41 42 43 44 45 44 43 42
19 18 18 18 18 16 15 15 15 16 16 16 20 24 26 27 29 31 31 32 33 32 33 35 35 35 36 37 38 37 37 37 36 36 36 37 38 39 39 40 39 38 39 39 40 40 40 40 40 41 41 41 41 41 41 42 43 44 45 46 46 44 42
17 18 18 17 16 14 14 14 14 16 16 17 21 25 27 28 28 29 30 31 31 30 30 31 33 33 34 35 36 36 36 37 36 36 36 37 38 39 39 38 38 38 38 39 40 40 40 40 41 42 41 40 40 41 42 43 44 45 46 47 47 46 43
15 15 15 16 15 14 14 13 13 15 16 18 22 27 29 30 30 30 31 31 31 30 30 30 31 33 35 36 36 36 37 37 36 36 37 37 38 38 37 37 38 39 39 39 40 40 40 41 41 41 41 41 40 41 42 43 44 45 46 46 47 47 45
9 9 9 10 10 10 10 9 9 12 16 20 24 27 28 30 30 31 32 32 32 32 32 31 31 33 35 36 37 37 37 37 37 37 37 38 38 37 37 38 39 39 39 39 39 39 40 40 41 41 42 42 41 41 42 43 44 45 46 46 46 46 46
10 11 9 8 7 7 6 7 7 8 12 17 20 22 24 26 27 29 29 30 31 31 32 32 32 32 34 36 37 37 37 37 36 36 37 37 38 37 38 39 39 39 39 39 39 40 40 40 40 41 42 42 42 42 41 42 44 44 45 47 46 46 46
12 13 11 9 9 8 7 8 9 9 10 12 16 18 21 23 25 25 26 28 30 30 31 31 31 31 32 34 36 36 36 36 36 36 37 37 37 37 38 39 40 40 40 39 38 39 39 40 40 40 41 41 41 41 42 42 43 43 45 46 46 45 44
13 14 13 11 12 12 13 15 16 14 14 13 10 8 12 18 23 25 25 27 28 29 30 30 30 31 31 32 35 36 37 37 37 36 37 37 37 38 38 39 40 40 39 38 38 37 38 39 39 39 40 39 40 41 41 42 41 41 43 43 43 43 44
14 14 13 12 14 15 18 22 21 19 21 21 19 15 9 7 15 21 23 26 28 28 28 28 30 31 31 32 34 36 38 39 39 38 38 38 38 38 38 39 39 39 39 39 39 39 40 39 38 38 38 38 39 40 39 39 38 38 39 39 40 41 43
14 14 15 16 17 17 19 22 23 23 24 23 20 18 16 12 8 9 10 14 20 24 26 28 30 31 32 32 34 36 39 40 41 40 39 39 39 39 39 39 40 39 39 40 40 40 40 38 37 37 38 38 38 38 37 36 35 34 34 35 36 39 41
13 13 14 17 19 19 21 23 24 22 21 20 18 18 17 15 13 11 8 3 4 11 18 24 28 31 33 33 33 36 38 39 41 42 41 41 40 39 39 40 39 38 38 38 38 38 37 37 37 37 37 37 37 37 36 36 34 33 32 32 33 35 39
14 16 17 18 21 22 21 22 22 20 20 20 20 20 19 16 14 14 12 9 8 5 5 11 19 26 30 32 33 34 36 38 40 41 42 42 42 40 39 38 37 37 37 36 36 35 35 36 36 36 35 35 35 35 36 35 34 34 33 33 33 33 35
14 16 18 21 24 23 21 19 20 21 22 23 23 22 20 18 16 15 13 12 13 12 8 5 9 16 23 26 29 32 35 37 38 39 40 40 40 38 36 36 35 35 35 35 34 34 34 34 34 33 33 32 33 33 34 33 33 33 33 34 34 34 34
12 12 14 16 19 21 20 18 18 18 20 21 22 22 21 20 17 15 14 15 16 14 10 8 7 10 17 24 26 28 32 35 37 38 37 37 37 37 35 34 34 33 34 34 32 32 32 32 31 30 29 29 30 30 30 30 30 31 32 32 33 33 33
10 10 11 13 15 18 18 15 13 15 18 20 20 20 20 20 18 15 15 17 17 15 12 10 8 7 13 21 25 27 29 32 34 36 36 36 36 36 34 32 32 31 32 33 32 30 29 28 28 27 26 25 26 26 26 25 25 27 29 30 30 30 31
9 10 11 13 15 18 17 14 13 14 16 18 19 18 18 19 18 16 17 18 18 16 14 13 10 7 10 16 23 25 27 29 32 33 34 34 34 34 32 31 30 30 30 31 30 28 26 25 25 25 24 24 24 24 23 22 22 24 26 27 28 28 28
9 11 12 13 15 17 18 16 15 15 15 17 18 17 16 17 17 17 17 18 18 17 15 14 11 8 9 12 18 22 23 25 27 29 29 30 32 32 32 32 32 30 29 28 28 27 25 23 23 23 23 22 22 22 21 21 20 21 22 24 25 27 27
9 11 13 14 15 17 18 16 14 13 13 14 15 15 15 15 15 16 17 17 18 17 15 14 12 9 8 11 15 18 21 22 24 24 24 25 27 28 28 30 31 29 27 26 25 23 21 21 21 21 21 21 20 20 20 19 18 17 17 18 20 22 24
8 10 13 16 17 16 16 14 12 12 12 13 13 13 14 14 14 15 16 17 17 18 16 14 13 11 7 11 14 17 20 22 22 22 21 20 20 20 20 22 24 24 25 26 25 23 22 21 21 22 22 22 21 19 16 15 15 14 13 13 13 14 15
8 10 11 14 16 14 13 12 11 11 11 11 10 11 11 12 14 14 15 16 16 16 16 14 12 10 6 10 14 16 19 21 21 22 22 21 19 17 14 13 16 18 20 22 24 24 24 24 24 25 24 22 20 18 17 16 15 13 12 11 10 9 9
7 9 11 14 15 14 12 11 10 10 10 9 8 8 9 11 13 14 14 14 15 15 15 13 11 7 3 6 11 15 17 19 21 23 25 24 22 19 15 10 10 13 15 17 20 22 23 23 23 23 22 19 17 17 18 18 16 14 12 11 10 9 8
9 9 9 13 15 13 11 11 10 10 10 8 6 7 8 10 12 13 13 12 13 13 12 10 7 5 2 3 9 14 18 20 22 24 25 24 24 23 20 18 14 10 9 9 12 15 17 18 18 17 17 17 16 15 15 15 16 14 12 11 9 8 7
13 11 9 11 12 11 9 9 9 8 7 6 5 6 7 9 11 12 12 10 11 12 10 7 4 2 3 4 7 13 18 21 24 24 24 24 24 24 25 25 24 21 17 13 11 10 11 12 12 13 13 12 14 18 20 19 16 14 12 10 9 7 7
Wind_Direction
188 188 186 187 186 186 188 186 184 183 183 184 183 183 183 184 186 186 187 189 190 192 193 194 195 196 198 201 202 203 204 204 204 204 204 205 205 205 204 205 206 209 212 214 218 220 221 222 221 221 220 221 223 223 225 226 227 228 226 223 219 219 220
188 189 186 187 188 188 189 186 184 184 185 186 185 184 184 185 186 187 189 190 192 193 193 194 195 196 199 201 203 204 204 205 205 206 206 206 207 206 206 206 207 210 214 217 219 221 222 222 222 222 221 221 223 225 226 228 228 228 227 224 220 220 222
190 190 186 187 188 188 188 185 185 186 186 187 186 185 186 187 188 189 190 191 193 194 194 195 197 198 200 201 202 205 205 206 207 207 207 208 208 208 208 208 209 212 215 218 219 221 222 222 223 223 222 223 224 225 226 228 228 228 226 225 223 221 223
190 188 187 190 188 187 187 185 186 188 188 188 188 187 188 189 190 190 191 192 193 194 195 197 198 200 201 201 202 205 206 207 208 208 209 209 210 210 209 209 210 211 214 216 218 220 222 222 223 223 223 223 224 225 226 227 228 228 226 223 223 224 226
191 188 188 189 187 187 187 187 188 188 188 189 189 190 190 190 190 190 192 193 193 195 197 198 199 200 201 202 203 205 206 207 208 209 210 210 210 210 210 211 211 212 213 215 218 220 221 221 221 221 222 223 225 226 226 226 228 228 225 222 223 224 226
190 187 187 188 186 187 187 188 190 189 189 188 189 191 190 188 189 190 191 193 194 196 197 197 199 200 201 203 204 205 207 208 209 211 211 211 210 209 210 211 212 213 214 215 217 220 221 221 220 220 221 222 224 225 226 226 227 227 225 223 224 224 224
186 184 184 187 186 186 187 187 189 190 190 189 188 189 187 187 189 190 191 192 194 195 195 196 198 200 201 203 204 205 207 208 210 211 212 212 212 212 212 212 212 213 214 214 215 217 218 219 220 221 221 221 222 224 225 226 226 226 225 224 225 225 224
181 181 183 186 185 185 187 186 187 189 190 188 187 186 186 187 189 190 191 192 193 194 195 196 198 200 202 203 204 206 208 209 209 210 211 212 214 215 215 214 213 213 213 213 214 214 216 218 220 221 221 221 222 223 225 226 226 225 225 224 224 224 224
177 181 184 184 184 184 184 184 184 186 188 188 186 185 186 188 189 190 192 192 192 194 195 197 198 200 202 203 205 207 208 209 209 210 210 212 214 216 217 217 216 214 213 213 214 214 216 218 219 220 221 221 222 224 225 225 225 224 223 224 224 224 224
177 183 183 182 183 184 182 181 181 183 186 186 185 184 187 189 191 191 192 192 193 195 197 198 199 200 201 202 205 206 207 208 209 209 210 211 213 215 217 218 218 217 215 214 214 214 216 217 218 219 220 222 223 224 225 225 224 224 223 223 224 224 225
179 181 181 182 183 180 178 177 179 183 186 185 184 185 188 191 192 192 192 192 193 196 197 198 198 199 201 202 204 206 207 208 208 209 209 211 213 215 217 218 218 218 217 216 215 215 216 216 217 218 220 222 223 224 225 225 224 223 223 223 224 224 225
182 180 179 180 179 177 176 178 181 183 183 184 185 186 190 191 192 193 193 193 194 196 197 197 198 199 201 202 204 205 207 207 208 208 210 211 213 214 216 217 218 218 218 217 216 216 216 216 216 218 219 221 223 224 225 225 224 224 224 223 223 224 225
181 180 177 177 176 176 176 178 182 183 182 183 185 187 190 191 192 193 193 193 195 196 196 197 198 199 201 202 204 206 208 208 208 208 210 211 213 214 216 217 217 218 218 218 217 216 216 216 217 218 220 222 223 224 224 224 224 224 224 224 223 224 224
178 177 175 177 176 175 177 180 183 183 182 181 183 186 189 190 193 194 193 193 195 196 197 197 198 199 200 201 203 207 209 210 209 209 210 212 213 215 216 216 217 218 218 218 217 217 217 218 218 219 220 222 223 224 224 224 223 224 224 224 224 224 225
178 177 175 177 178 177 180 181 181 180 180 181 182 183 185 188 192 194 194 194 195 196 197 196 197 199 199 200 203 207 210 211 210 210 210 212 214 215 216 217 217 218 218 218 218 218 219 219 220 220 221 223 223 224 224 224 224 224 224 224 224 224 226
176 177 176 179 182 183 182 180 178 177 176 179 183 183 184 187 190 193 194 194 195 196 196 196 196 198 199 201 205 207 209 210 210 210 210 211 214 216 216 217 217 218 218 219 219 220 220 220 221 221 222 223 223 224 224 224 225 225 226 226 225 225 226
173 174 177 183 185 182 178 175 174 175 176 181 184 184 185 188 191 194 195 196 196 196 195 195 196 198 199 203 206 207 207 208 209 210 211 212 214 216 217 217 217 218 218 219 220 220 220 220 221 222 223 223 224 224 224 224 226 226 227 228 228 226 225
172 174 177 182 180 175 175 175 174 176 180 184 184 184 188 190 192 195 197 198 199 199 197 196 196 199 201 204 207 207 207 208 208 209 211 212 214 215 217 217 217 217 218 219 220 221 220 220 221 222 223 224 224 225 225 226 227 227 228 229 229 228 227
165 171 172 173 171 172 175 175 175 180 181 182 184 187 189 190 191 196 198 199 200 201 201 199 197 199 202 205 206 207 207 207 208 209 210 212 214 215 216 216 217 217 218 219 220 221 221 221 221 222 223 223 225 226 226 228 229 229 229 230 231 230 229
130 135 139 149 156 165 171 167 169 176 178 182 186 189 190 191 193 196 197 198 199 200 201 201 200 199 201 203 205 206 207 207 207 208 210 212 213 214 214 215 217 218 218 220 220 221 222 223 223 223 223 224 225 226 228 229 230 230 231 231 232 231 230
84 90 91 99 106 111 127 136 143 158 173 184 187 188 190 193 196 197 197 197 199 200 201 202 202 201 201 202 204 205 205 206 206 207 209 211 211 212 213 214 216 217 218 219 220 221 223 224 224 224 225 225 226 227 229 231 231 232 232 233 233 233 231
78 82 81 82 86 88 96 105 112 127 153 178 188 191 195 198 198 196 197 199 200 202 203 204 205 205 203 202 203 205 205 205 205 206 208 210 210 210 211 213 215 216 216 218 220 222 224 226 226 226 226 226 226 227 230 232 233 233 233 234 234 233 232
75 77 77 77 79 79 78 80 84 90 99 109 121 149 186 200 200 197 196 199 201 203 204 206 208 208 206 203 203 204 204 205 205 206 207 208 208 209 211 212 214 215 215 216 219 221 224 226 227 228 229 228 228 228 230 232 234 234 234 235 234 232 231
68 69 69 67 69 70 70 72 73 72 73 73 67 63 77 152 188 195 196 199 201 203 205 208 211 211 209 206 204 204 204 205 205 206 207 207 208 210 211 212 214 215 214 215 217 220 223 225 227 229 231 231 230 230 231 232 234 234 235 235 235 233 231
61 61 60 57 61 65 68 70 69 61 57 55 49 46 52 69 107 150 179 197 203 205 208 211 212 212 212 210 207 206 205 205 205 206 207 208 210 210 211 212 214 215 214 215 216 219 222 223 226 229 231 232 233 233 234 234 234 234 234 234 234 233 232
57 56 54 51 52 57 62 63 61 55 51 47 42 39 40 47 58 60 53 60 200 214 219 219 217 216 215 214 211 208 207 205 205 205 207 209 211 211 211 213 213 213 214 215 217 219 221 222 224 227 229 231 233 234 234 234 234 234 234 233 232 232 231
55 53 52 47 44 47 53 57 58 55 50 44 41 38 36 39 43 38 33 40 38 5 279 242 231 225 221 217 213 210 208 207 206 206 207 209 211 212 212 212 212 212 213 214 215 217 220 222 224 227 229 231 231 232 234 234 234 234 234 233 232 231 230
54 50 48 45 41 41 43 48 51 50 46 41 39 38 37 41 42 34 32 33 19 2 351 318 260 239 229 222 216 211 209 208 208 208 208 209 209 210 211 211 211 211 212 212 214 216 218 221 223 226 229 231 232 233 234 234 234 235 235 234 234 233 231
54 52 49 46 42 41 42 44 45 45 43 40 38 36 36 38 37 30 27 20 4 353 349 342 310 258 237 227 219 214 211 208 207 207 207 207 208 208 209 209 209 209 210 210 211 214 217 220 222 224 228 230 232 234 235 235 235 235 235 235 235 234 234
45 48 50 49 46 45 48 52 52 48 43 40 38 36 34 34 31 24 16 7 359 354 348 338 326 287 247 230 221 217 214 210 207 205 205 205 205 206 206 207 206 207 208 209 209 211 214 217 218 221 225 228 230 232 233 233 234 235 237 237 236 235 236
43 44 45 43 41 42 45 51 53 47 41 38 38 36 33 32 30 21 9 1 358 355 348 341 331 301 261 237 224 219 215 210 206 204 204 203 202 202 202 202 203 205 206 207 208 209 212 214 216 218 221 225 228 230 231 232 234 235 236 236 235 235 236
36 38 39 36 33 34 38 43 46 43 38 34 32 31 30 30 29 20 6 358 357 353 346 344 336 305 266 242 228 219 212 207 203 201 202 201 200 200 200 200 201 203 204 204 206 208 210 211 212 215 220 223 225 227 230 231 232 232 232 231 232 233 235
23 24 27 27 27 32 38 42 41 39 36 29 23 22 22 22 21 15 3 356 354 350 342 340 339 318 266 234 221 212 207 202 198 195 195 194 195 197 199 200 201 201 200 201 202 204 206 208 210 213 216 220 223 225 226 225 222 221 223 226 228 231 234
19 19 23 24 25 33 42 41 37 35 34 26 18 13 11 9 7 3 357 351 348 346 341 335 334 326 276 226 210 203 200 197 190 183 178 176 181 186 192 197 199 200 201 201 201 202 204 207 210 214 216 219 220 217 212 209 210 209 210 213 216 219 223
17 20 21 21 22 30 39 38 34 33 32 27 19 9 0 357 357 355 352 347 343 343 341 332 327 325 286 217 202 195 190 184 177 169 161 156 157 160 166 182 194 198 202 204 206 209 212 213 216 218 220 219 215 208 200 193 191 190 189 186 185 186 187
13 14 16 24 27 29 35 37 36 33 32 30 21 7 354 346 346 346 343 340 338 339 339 332 320 313 290 202 190 184 174 164 159 157 155 153 150 143 133 137 170 191 199 206 210 213 216 220 221 220 216 211 204 203 203 193 175 165 166 167 165 167 168
359 358 15 36 41 37 38 41 39 35 35 35 22 6 353 342 341 343 339 335 337 339 336 329 313 291 264 182 176 172 162 154 151 151 152 152 150 142 128 112 107 123 155 184 202 207 210 214 215 210 207 204 192 178 174 171 161 155 158 157 152 151 149
358 0 23 50 50 41 37 39 38 42 44 35 17 2 349 339 338 341 339 334 337 340 334 326 318 275 208 182 173 167 160 155 154 152 149 146 143 141 134 120 104 94 95 109 132 151 160 164 163 159 160 170 169 153 143 141 142 144 145 140 135 135 132
Height
700 702 705 707 709 712 713 714 717 722 727 730 734 738 742 746 750 754 757 761 764 767 771 774 777 780 783 785 788 791 793 796 798 800 802 804 805 808 810 812 814 816 818 819 821 822 824 826 828 830 831 833 834 836 838 839 840 842 843 844 845 846 846
697 699 700 703 706 708 709 710 714 718 722 726 729 733 738 741 745 749 752 756 759 762 767 770 773 776 779 782 785 788 791 793 795 798 800 802 804 806 808 810 812 814 816 817 819 821 823 825 827 828 830 831 833 834 836 838 839 840 842 843 844 844 845
693 695 696 698 700 703 705 707 710 714 717 721 725 729 733 736 739 743 746 750 755 759 763 766 769 772 775 779 782 785 788 791 793 796 797 799 801 804 806 808 810 812 814 815 817 819 821 823 825 827 828 829 831 832 834 836 837 839 840 841 842 843 843
686 688 690 692 694 697 700 703 705 709 713 717 720 724 727 731 734 738 742 746 750 755 758 762 765 769 772 776 779 782 785 788 791 793 794 796 799 801 804 806 808 810 811 813 815 817 819 822 823 825 826 828 829 831 832 834 835 837 838 839 840 841 842
681 682 686 689 691 695 698 700 702 704 709 713 716 720 723 727 732 736 740 743 747 751 754 758 763 767 771 774 777 780 782 785 788 790 792 794 796 799 801 803 805 807 809 811 813 815 817 819 821 823 824 826 827 829 830 832 833 834 836 837 838 839 839
678 680 684 687 690 693 694 696 698 700 705 708 712 716 721 726 731 734 738 741 745 748 752 756 761 764 768 771 774 777 780 783 786 788 790 792 795 797 797 799 802 803 806 808 810 812 814 817 818 820 822 823 825 826 828 829 830 832 833 834 835 836 837
672 676 680 683 685 688 690 692 695 698 702 705 708 714 719 724 728 731 735 738 741 746 750 754 757 761 764 767 770 774 776 780 782 785 788 791 793 794 795 797 798 800 803 805 808 810 812 814 816 817 819 821 822 824 825 826 828 829 830 831 832 833 834
665 670 674 677 680 683 686 689 692 696 701 704 708 712 716 720 724 728 731 735 738 743 746 750 753 757 760 764 767 770 773 776 779 782 785 788 791 792 794 795 796 798 801 803 805 807 809 811 813 815 817 818 820 821 822 823 824 826 827 828 829 830 831
660 664 667 671 674 678 682 685 689 693 698 702 705 708 713 717 720 724 727 731 735 739 742 745 749 753 756 760 763 766 770 773 776 779 781 784 787 789 791 793 795 797 798 800 802 804 806 808 810 812 814 815 817 817 819 820 821 822 824 824 826 827 828
658 661 663 667 670 674 677 682 687 691 695 699 702 706 710 713 716 720 724 728 732 735 738 742 745 750 753 756 759 763 766 769 772 775 777 779 782 785 788 790 793 795 796 798 800 801 803 805 807 809 811 812 813 814 815 816 817 819 820 821 823 824 825
655 658 662 666 669 673 677 682 686 689 692 695 699 702 705 709 713 717 721 725 728 732 735 739 743 747 750 752 756 759 762 765 768 770 772 775 778 781 784 787 790 792 793 795 797 798 800 802 804 806 807 808 809 810 811 812 814 816 817 818 820 821 821
653 656 661 665 669 673 677 680 683 685 688 692 695 698 702 706 710 714 718 722 725 729 732 736 740 743 746 749 752 755 757 760 763 765 768 771 774 777 780 783 786 788 790 791 793 795 797 798 800 801 802 803 804 806 807 808 810 812 813 815 816 817 818
651 655 659 662 666 670 674 678 681 682 685 688 691 695 699 703 707 710 714 718 721 725 728 732 736 739 742 745 748 751 753 756 758 760 763 766 770 773 776 779 782 784 786 788 790 792 793 794 796 797 798 799 800 802 803 805 807 808 810 811 812 814 815
649 654 658 660 664 668 672 675 677 680 682 685 689 693 696 700 704 707 710 713 717 721 724 727 731 734 737 741 744 747 749 751 754 756 759 762 766 769 772 775 778 780 782 784 786 787 789 790 791 793 794 795 797 798 800 802 803 805 806 807 809 810 811
649 653 657 660 663 665 667 671 673 677 680 683 686 690 694 698 701 704 707 710 713 716 719 723 727 730 734 737 739 741 744 748 751 753 756 759 762 765 768 771 774 777 779 781 782 783 785 786 788 789 791 792 793 795 797 798 799 800 802 803 805 806 807
647 651 656 658 659 661 662 666 669 673 678 681 684 688 691 695 698 700 704 706 709 712 715 719 723 726 729 732 733 736 740 745 748 750 753 755 758 761 764 767 771 773 775 777 778 779 781 783 785 786 787 788 789 791 793 794 794 796 797 798 800 801 803
645 649 653 655 656 659 660 664 668 671 675 678 680 683 687 691 694 697 700 703 706 709 712 716 719 722 725 728 730 734 738 741 744 746 749 751 754 757 760 763 767 769 771 773 774 776 777 779 780 781 782 784 785 787 788 789 790 791 792 794 796 798 799
644 646 649 652 655 658 660 663 667 670 672 674 677 681 684 687 691 695 697 700 703 707 711 714 717 720 723 725 728 731 734 736 739 742 745 747 750 753 756 760 763 766 768 769 770 772 773 775 776 777 778 780 781 782 783 784 785 787 788 790 792 794 796
642 644 646 649 652 655 659 661 663 666 668 671 675 678 680 684 688 691 694 698 701 705 708 711 713 717 719 722 725 727 729 732 734 737 740 743 746 750 754 757 759 761 763 764 766 768 769 770 771 773 774 775 776 777 778 779 781 783 784 786 788 790 793
643 645 647 649 652 655 658 660 662 664 667 670 673 676 680 684 686 688 692 695 699 701 704 707 710 712 715 718 720 722 725 727 730 733 736 739 743 746 750 752 754 756 759 761 763 765 765 766 767 769 770 771 772 773 774 775 776 778 780 782 784 787 789
649 649 652 654 656 658 660 661 663 666 668 671 675 678 681 684 685 688 691 693 696 698 700 703 705 708 710 713 715 718 720 723 726 729 732 735 739 742 744 747 749 752 755 757 759 760 760 762 763 764 765 766 768 769 770 770 772 774 776 777 780 783 785
653 653 656 658 659 661 662 662 664 667 669 672 675 678 680 682 684 687 689 691 694 695 697 700 702 703 706 708 710 713 716 719 722 725 728 732 735 737 739 742 744 746 750 752 754 756 757 758 759 760 761 763 764 765 765 766 768 770 772 774 777 780 783
653 655 657 659 660 662 663 664 666 669 671 673 676 678 679 680 682 684 686 688 690 692 694 696 697 699 701 703 706 709 712 715 718 721 724 727 729 732 734 737 739 742 745 748 750 752 753 754 755 756 758 759 760 761 761 763 765 767 769 771 774 777 779
654 655 658 659 661 663 665 667 669 672 674 674 676 678 679 679 680 682 683 685 686 689 691 692 693 695 697 699 702 705 708 711 714 716 719 722 724 727 729 732 735 737 740 743 744 746 747 749 751 753 754 755 756 757 758 760 762 765 767 769 772 774 775
658 659 660 661 664 666 668 670 672 674 675 675 678 679 679 679 680 681 682 684 685 686 687 687 689 691 693 696 698 701 703 705 708 711 714 716 719 722 724 727 730 732 735 737 739 741 743 745 747 748 749 751 752 754 756 758 760 762 764 766 768 770 771
662 663 663 664 666 668 669 670 672 674 677 678 680 680 680 680 680 681 682 683 684 685 685 686 687 688 690 692 694 696 698 701 703 706 708 711 714 717 720 722 725 728 731 733 735 737 739 741 742 743 744 746 748 750 752 754 756 758 760 762 764 765 766
665 665 666 668 668 669 670 672 674 677 679 681 682 681 681 680 680 681 682 682 683 684 685 685 686 686 687 688 689 692 694 696 699 701 703 706 709 712 715 718 721 724 726 729 732 734 735 737 738 739 741 742 744 746 747 749 752 753 755 757 759 760 762
669 669 670 671 670 671 672 674 676 678 680 681 682 682 682 681 681 682 682 682 683 684 683 684 684 684 685 686 687 688 690 692 695 698 700 703 706 709 712 714 717 720 723 725 728 730 731 733 734 736 737 739 741 742 743 745 748 749 751 752 753 755 757
674 675 675 675 676 676 676 677 679 680 682 684 684 684 683 683 683 683 684 684 684 683 683 682 682 681 682 683 684 685 687 689 691 694 697 700 703 706 709 711 714 717 719 722 724 726 728 729 731 733 735 736 737 739 740 743 744 745 747 748 749 751 753
679 679 679 679 681 681 682 683 684 684 686 686 686 686 685 684 685 685 685 685 684 683 682 681 681 680 680 680 681 683 684 686 688 691 693 696 699 703 706 709 711 714 716 718 720 722 724 726 728 730 732 733 734 736 738 740 741 742 743 744 746 748 749
683 682 682 682 683 683 684 685 685 686 687 687 687 687 687 686 687 686 686 686 684 683 682 681 680 679 678 679 679 681 682 684 686 688 691 693 697 699 702 706 709 711 713 715 717 719 721 723 725 727 728 730 731 733 736 737 739 740 740 741 743 744 745
683 682 682 682 682 683 684 684 685 686 687 687 687 688 688 688 688 688 688 687 685 683 682 681 679 678 677 677 678 679 681 683 685 687 690 692 695 697 700 703 705 707 710 712 714 716 718 720 722 724 726 727 729 731 733 735 736 736 737 738 740 741 743
684 682 682 682 682 683 684 685 686 687 688 689 689 689 689 690 689 689 689 687 685 684 682 680 679 678 677 677 677 678 680 682 684 686 689 692 694 697 699 701 703 705 707 709 712 714 716 719 721 722 724 725 727 729 731 732 733 734 734 736 738 739 740
687 685 685 685 685 686 686 687 689 690 690 691 691 690 691 690 690 690 689 687 686 684 682 681 680 678 677 676 676 677 678 680 682 685 688 691 694 697 699 701 703 704 706 707 710 712 714 717 718 720 721 723 724 727 729 730 731 732 733 735 736 736 738
691 690 689 688 688 688 689 690 691 691 692 692 692 692 692 691 691 690 689 688 687 685 683 681 680 678 677 676 676 676 677 679 682 684 687 690 693 696 699 701 703 704 705 707 709 710 712 714 715 717 718 720 722 724 726 727 729 731 732 733 734 735 737
694 693 691 689 689 690 691 692 693 693 693 693 693 693 693 692 691 690 689 688 687 685 683 682 680 679 678 677 677 677 678 680 682 684 686 689 691 694 698 700 702 703 705 707 708 710 711 712 714 715 717 718 720 722 724 725 728 730 731 732 733 734 735
695 693 691 690 690 691 693 694 694 694 694 694 694 695 694 693 692 691 690 689 687 686 684 682 681 680 679 678 678 678 679 680 682 684 686 689 691 693 696 699 702 704 705 707 708 709 710 712 713 714 716 717 718 721 723 725 727 729 731 732 733 734 735
696 694 692 691 691 694 696 696 695 695 695 695 696 696 695 695 694 692 690 689 688 686 684 683 681 680 680 679 679 679 679 680 682 684 686 688 691 693 695 698 702 705 708 709 709 710 711 712 713 714 717 718 719 720 723 725 727 729 730 731 732 733 734